• în Republica Moldova
  • Lista ţărilor
  • Pe 7 zile
  • Temperatura apei
  • Hartă satelitară
  • Meteo pe hartă
  • Widget-uri
  • user-avatar
    Intrare

    Meteo pe oră la Djelfa

    Astăzi, 13 Decembrie, Miercuri

    Timp Temperatura Precipitaţii Vânt Presiune Umiditate
    00:00 +7°C° 0 mm 1 m/s 665 mmHg 70%
    01:00 +5°C° 0 mm 2 m/s 665 mmHg 75%
    02:00 +5°C° 0 mm 2 m/s 666 mmHg 80%
    03:00 +4°C° 0 mm 2 m/s 666 mmHg 86%
    04:00 +4°C° 0 mm 2 m/s 666 mmHg 88%
    05:00 +4°C° 0 mm 2 m/s 666 mmHg 90%
    06:00 +3°C° 0 mm 2 m/s 667 mmHg 93%
    07:00 +4°C° 0 mm 2 m/s 667 mmHg 88%
    08:00 +5°C° 0 mm 2 m/s 668 mmHg 82%
    09:00 +6°C° 0 mm 2 m/s 668 mmHg 77%
    10:00 +7°C° 0 mm 2 m/s 669 mmHg 70%
    11:00 +8°C° 0 mm 2 m/s 669 mmHg 64%
    12:00 +9°C° 0 mm 3 m/s 669 mmHg 57%
    13:00 +10°C° 0 mm 3 m/s 669 mmHg 56%
    14:00 +10°C° 0 mm 3 m/s 669 mmHg 55%
    15:00 +10°C° 0 mm 3 m/s 669 mmHg 54%
    16:00 +9°C° 0 mm 2 m/s 668 mmHg 58%
    17:00 +8°C° 0 mm 2 m/s 668 mmHg 63%
    18:00 +7°C° 0 mm 2 m/s 668 mmHg 68%
    19:00 +7°C° 0 mm 1 m/s 669 mmHg 70%
    20:00 +7°C° 0 mm 1 m/s 669 mmHg 73%
    21:00 +6°C° 0 mm 1 m/s 669 mmHg 76%
    22:00 +6°C° 0 mm 1 m/s 669 mmHg 76%
    23:00 +6°C° 0 mm 1 m/s 669 mmHg 77%

    Mâine, 14 Decembrie, Joi

    Timp Temperatura Precipitaţii Vânt Presiune Umiditate
    00:00 +6°C° 0 mm 1 m/s 669 mmHg 78%
    01:00 +5°C° 0 mm 2 m/s 668 mmHg 77%
    02:00 +5°C° 0 mm 2 m/s 668 mmHg 77%
    03:00 +5°C° 0 mm 2 m/s 668 mmHg 76%
    04:00 +5°C° 0 mm 2 m/s 668 mmHg 75%
    05:00 +5°C° 0 mm 2 m/s 668 mmHg 74%
    06:00 +4°C° 0 mm 2 m/s 668 mmHg 74%
    07:00 +6°C° 0 mm 2 m/s 668 mmHg 65%
    08:00 +8°C° 0 mm 2 m/s 669 mmHg 57%
    09:00 +9°C° 0 mm 2 m/s 670 mmHg 49%
    10:00 +11°C° 0 mm 3 m/s 669 mmHg 43%
    11:00 +12°C° 0 mm 4 m/s 669 mmHg 37%
    12:00 +14°C° 0 mm 4 m/s 669 mmHg 31%
    13:00 +14°C° 0 mm 4 m/s 669 mmHg 29%
    14:00 +14°C° 0 mm 4 m/s 668 mmHg 27%
    15:00 +15°C° 0 mm 4 m/s 668 mmHg 25%
    16:00 +13°C° 0 mm 4 m/s 668 mmHg 29%
    17:00 +11°C° 0 mm 3 m/s 667 mmHg 32%
    18:00 +10°C° 0 mm 3 m/s 667 mmHg 35%
    19:00 +9°C° 0 mm 3 m/s 667 mmHg 37%
    20:00 +9°C° 0 mm 2 m/s 666 mmHg 38%
    21:00 +8°C° 0 mm 2 m/s 666 mmHg 40%
    22:00 +8°C° 0 mm 2 m/s 666 mmHg 40%
    23:00 +8°C° 0 mm 2 m/s 666 mmHg 40%

    Poimâine, 15 Decembrie, Vineri

    Timp Temperatura Precipitaţii Vânt Presiune Umiditate
    00:00 +7°C° 0 mm 2 m/s 666 mmHg 41%
    01:00 +7°C° 0 mm 3 m/s 665 mmHg 41%
    02:00 +7°C° 0 mm 3 m/s 665 mmHg 42%
    03:00 +7°C° 0 mm 3 m/s 664 mmHg 42%
    04:00 +7°C° 0 mm 3 m/s 664 mmHg 41%
    05:00 +7°C° 0 mm 3 m/s 664 mmHg 40%
    06:00 +7°C° 0 mm 3 m/s 664 mmHg 40%
    07:00 +8°C° 0 mm 2 m/s 664 mmHg 37%
    08:00 +9°C° 0 mm 2 m/s 664 mmHg 34%
    09:00 +10°C° 0 mm 2 m/s 664 mmHg 31%
    10:00 +12°C° 0 mm 2 m/s 664 mmHg 29%
    11:00 +12°C° 0 mm 3 m/s 664 mmHg 27%
    12:00 +13°C° 0 mm 3 m/s 663 mmHg 25%
    13:00 +14°C° 0 mm 2 m/s 663 mmHg 26%
    14:00 +14°C° 0 mm 2 m/s 662 mmHg 27%
    15:00 +13°C° 0 mm 1 m/s 661 mmHg 27%
    16:00 +13°C° 0 mm 1 m/s 661 mmHg 30%
    17:00 +12°C° 0 mm 1 m/s 661 mmHg 32%
    18:00 +11°C° 0 mm 1 m/s 661 mmHg 35%
    19:00 +9°C° 0,3 mm 2 m/s 661 mmHg 41%
    20:00 +9°C° 0,3 mm 2 m/s 661 mmHg 47%
    21:00 +8°C° 0,3 mm 2 m/s 661 mmHg 53%
    22:00 +7°C° 0,8 mm 2 m/s 660 mmHg 58%
    23:00 +7°C° 0,8 mm 3 m/s 660 mmHg 64%

    16 Decembrie, Sâmbătă

    Timp Temperatura Precipitaţii Vânt Presiune Umiditate
    00:00 +5°C° 0,8 mm 3 m/s 660 mmHg 69%
    01:00 +7°C° 0,3 mm 3 m/s 660 mmHg 72%
    02:00 +6°C° 0,3 mm 4 m/s 659 mmHg 74%
    03:00 +6°C° 0,3 mm 4 m/s 659 mmHg 76%
    04:00 +6°C° 0 mm 4 m/s 659 mmHg 80%
    05:00 +6°C° 0 mm 4 m/s 659 mmHg 84%
    06:00 +6°C° 0 mm 5 m/s 659 mmHg 88%
    07:00 +6°C° 0 mm 5 m/s 659 mmHg 86%
    08:00 +7°C° 0 mm 6 m/s 660 mmHg 83%
    09:00 +8°C° 0 mm 7 m/s 660 mmHg 81%
    10:00 +7°C° 0,1 mm 8 m/s 660 mmHg 79%
    11:00 +7°C° 0,1 mm 8 m/s 661 mmHg 77%
    12:00 +8°C° 0,1 mm 9 m/s 661 mmHg 75%
    13:00 +7°C° 0 mm 8 m/s 661 mmHg 72%
    14:00 +8°C° 0 mm 7 m/s 661 mmHg 69%
    15:00 +8°C° 0 mm 7 m/s 661 mmHg 66%
    16:00 +7°C° 0 mm 6 m/s 662 mmHg 70%
    17:00 +6°C° 0 mm 4 m/s 662 mmHg 73%
    18:00 +5°C° 0 mm 3 m/s 662 mmHg 77%
    19:00 +5°C° 0 mm 3 m/s 663 mmHg 80%
    20:00 +6°C° 0 mm 2 m/s 663 mmHg 82%
    21:00 +6°C° 0 mm 1 m/s 664 mmHg 85%
    22:00 +6°C° 0 mm 1 m/s 664 mmHg 86%
    23:00 +6°C° 0 mm 1 m/s 664 mmHg 87%

    17 Decembrie, Duminică

    Timp Temperatura Precipitaţii Vânt Presiune Umiditate
    00:00 +5°C° 0 mm 1 m/s 664 mmHg 87%
    01:00 +5°C° 0 mm 1 m/s 663 mmHg 87%
    02:00 +5°C° 0 mm 1 m/s 663 mmHg 87%
    03:00 +5°C° 0 mm 1 m/s 663 mmHg 87%
    04:00 +5°C° 0 mm 1 m/s 663 mmHg 88%
    05:00 +4°C° 0 mm 1 m/s 663 mmHg 89%
    06:00 +4°C° 0 mm 1 m/s 663 mmHg 89%
    07:00 +5°C° 0 mm 1 m/s 664 mmHg 84%
    08:00 +6°C° 0 mm 1 m/s 664 mmHg 79%
    09:00 +7°C° 0 mm 1 m/s 665 mmHg 74%
    10:00 +7°C° 0,2 mm 1 m/s 665 mmHg 73%
    11:00 +7°C° 0,2 mm 2 m/s 665 mmHg 71%
    12:00 +7°C° 0,2 mm 2 m/s 665 mmHg 69%
    13:00 +7°C° 0,8 mm 2 m/s 664 mmHg 70%
    14:00 +6°C° 0,8 mm 2 m/s 664 mmHg 72%
    15:00 +6°C° 0,8 mm 2 m/s 664 mmHg 73%
    16:00 +6°C° 0,4 mm 2 m/s 665 mmHg 74%
    17:00 +5°C° 0,4 mm 3 m/s 665 mmHg 75%
    18:00 +4°C° 0,4 mm 3 m/s 666 mmHg 76%
    19:00 +4°C° 0,4 mm 3 m/s 666 mmHg 76%
    20:00 +4°C° 0,4 mm 3 m/s 667 mmHg 76%
    21:00 +5°C° 0,4 mm 2 m/s 667 mmHg 76%
    22:00 +3°C° 0,2 mm 3 m/s 667 mmHg 77%
    23:00 +3°C° 0,2 mm 4 m/s 667 mmHg 78%

    18 Decembrie, Luni

    Timp Temperatura Precipitaţii Vânt Presiune Umiditate
    00:00 +3°C° 0,2 mm 4 m/s 667 mmHg 79%
    01:00 +1°C° 0 mm 4 m/s 667 mmHg 82%
    02:00 +1°C° 0 mm 4 m/s 667 mmHg 84%
    03:00 0°C° 0 mm 4 m/s 667 mmHg 86%
    04:00 0°C° 0 mm 4 m/s 668 mmHg 87%
    05:00 -1°C° 0 mm 4 m/s 668 mmHg 88%
    06:00 -1°C° 0 mm 3 m/s 668 mmHg 88%
    07:00 -1°C° 0 mm 4 m/s 668 mmHg 80%
    08:00 -1°C° 0 mm 4 m/s 669 mmHg 72%
    09:00 0°C° 0 mm 5 m/s 669 mmHg 64%
    10:00 +1°C° 0 mm 5 m/s 669 mmHg 60%
    11:00 +2°C° 0 mm 6 m/s 669 mmHg 57%
    12:00 +3°C° 0 mm 7 m/s 669 mmHg 54%
    13:00 +3°C° 0 mm 7 m/s 669 mmHg 53%
    14:00 +3°C° 0 mm 7 m/s 669 mmHg 53%
    15:00 +3°C° 0 mm 7 m/s 669 mmHg 53%
    16:00 +2°C° 0 mm 7 m/s 669 mmHg 57%
    17:00 +2°C° 0 mm 6 m/s 669 mmHg 61%
    18:00 +1°C° 0 mm 5 m/s 669 mmHg 65%
    19:00 0°C° 0 mm 5 m/s 669 mmHg 69%
    20:00 0°C° 0 mm 5 m/s 670 mmHg 74%
    21:00 -1°C° 0 mm 5 m/s 670 mmHg 78%
    22:00 -1°C° 0 mm 5 m/s 670 mmHg 81%
    23:00 -2°C° 0 mm 4 m/s 669 mmHg 84%
    Arată mai mult